Brunswick, GA

11:59 PM EDT on October 23, 2017 (GMT -0400)
Glynco Jetport

Weather History for KBQK - June, 2012

Change the Weather History Date:

Monday, June 25, 2012

  Actual Average Record
Temperature  
Mean Temperature 82 °F -  
Max Temperature 87 °F 91 °F 104 °F (1952)
Min Temperature 77 °F 72 °F 64 °F (2001)
Cooling Degree Days 17    
Growing Degree Days 32 (Base 50)    
Moisture  
Dew Point 77 °F    
Average Humidity 85    
Maximum Humidity 94    
Minimum Humidity 70    
Precipitation  
Precipitation 0.00 in - - ()
Sea Level Pressure  
Sea Level Pressure 29.76 in    
Wind  
Wind Speed 12 mph (SE)    
Max Wind Speed 20 mph    
Max Gust Speed 28 mph    
Visibility 8 miles    
Events      
Averages and records for this station are not official NWS values.
T = Trace of Precipitation, MM = Missing Value Source: NWS Daily Summary

Daily Weather History Graph

Daily Weather History Graph

Search for Another Location

Airport or City:

Trip Planner

Search our weather history database for the weather conditions in past years. The results will help you decide how hot, cold, wet, or windy it might be!

Date:

Astronomy

Jun. 25, 2012 Rise Set
Actual Time 6:23 AM EDT 8:33 PM EDT
Civil Twilight 5:55 AM EDT 9:01 PM EDT
Nautical Twilight 5:21 AM EDT 9:35 PM EDT
Astronomical Twilight 4:44 AM EDT 10:12 PM EDT
Moon 12:07 PM EDT (6/25) No Moon Set
Length of Visible Light 15h 06m
Length of Day
14h 10m
Waxing Crescent, 34% of the Moon is Illuminated
Jun 25
Waxing Crescent
Jun 26
First Quarter
Jul 3
Full
Jul 10
Last Quarter
Jul 19
New

Hourly Weather History & Observations

Time (EDT) Temp. Heat Index Dew Point Humidity Pressure Visibility Wind Dir Wind Speed Gust Speed Precip Events Conditions
12:15 AM 78.8 °F - 75.2 °F 89% 29.89 in 10.0 mi SE 10.4 mph - N/A   Mostly Cloudy
12:35 AM 78.8 °F - 73.4 °F 83% 29.88 in 10.0 mi SE 11.5 mph - N/A   Overcast
12:55 AM 78.8 °F - 75.2 °F 89% 29.88 in 7.0 mi SE 10.4 mph 17.3 mph N/A   Overcast
1:15 AM 78.8 °F - 73.4 °F 83% 29.88 in 5.0 mi SE 6.9 mph 18.4 mph N/A   Overcast
1:35 AM 78.8 °F - 75.2 °F 89% 29.87 in 7.0 mi ESE 10.4 mph - N/A   Overcast
1:55 AM 78.8 °F - 75.2 °F 89% 29.86 in 7.0 mi ESE 8.1 mph 17.3 mph N/A   Overcast
2:15 AM 78.8 °F - 75.2 °F 89% 29.85 in 7.0 mi ESE 6.9 mph - N/A   Overcast
2:35 AM 78.8 °F - 75.2 °F 89% 29.84 in 5.0 mi ESE 10.4 mph 16.1 mph N/A   Overcast
2:55 AM 78.8 °F - 77.0 °F 94% 29.84 in 5.0 mi ESE 11.5 mph 18.4 mph N/A   Overcast
3:15 AM 78.8 °F - 77.0 °F 94% 29.83 in 5.0 mi SE 19.6 mph 25.3 mph N/A   Overcast
3:35 AM 78.8 °F - 77.0 °F 94% 29.82 in 4.0 mi SE 11.5 mph 18.4 mph N/A   Overcast
3:55 AM 78.8 °F - 77.0 °F 94% 29.83 in 5.0 mi SE 16.1 mph 27.6 mph N/A   Overcast
4:15 AM 77.0 °F - 73.4 °F 89% 29.82 in 3.0 mi ESE 17.3 mph 25.3 mph N/A   Overcast
4:35 AM 78.8 °F - 77.0 °F 94% 29.82 in 5.0 mi ESE 12.7 mph - N/A   Overcast
4:55 AM 78.8 °F - 75.2 °F 89% 29.81 in 4.0 mi ESE 15.0 mph 23.0 mph N/A   Overcast
5:15 AM 78.8 °F - 77.0 °F 94% 29.81 in 3.0 mi ESE 12.7 mph 21.9 mph N/A   Overcast
5:35 AM 78.8 °F - 77.0 °F 94% 29.80 in 5.0 mi ESE 15.0 mph 24.2 mph N/A   Overcast
5:55 AM 78.8 °F - 77.0 °F 94% 29.80 in 7.0 mi ESE 17.3 mph 23.0 mph N/A   Overcast
6:15 AM 78.8 °F - 77.0 °F 94% 29.80 in 4.0 mi ESE 16.1 mph 27.6 mph N/A   Overcast
6:35 AM 78.8 °F - 75.2 °F 89% 29.80 in 4.0 mi ESE 12.7 mph 18.4 mph N/A   Overcast
6:55 AM 78.8 °F - 77.0 °F 94% 29.80 in 5.0 mi SE 12.7 mph 21.9 mph N/A   Overcast
7:15 AM 78.8 °F - 77.0 °F 94% 29.79 in 4.0 mi ESE 13.8 mph 25.3 mph N/A   Overcast
7:35 AM 78.8 °F - 77.0 °F 94% 29.79 in 2.5 mi ESE 15.0 mph 24.2 mph N/A   Overcast
7:55 AM 78.8 °F - 77.0 °F 94% 29.78 in 10.0 mi ESE 13.8 mph 19.6 mph N/A   Overcast
8:15 AM 78.8 °F - 77.0 °F 94% 29.78 in 10.0 mi ESE 11.5 mph 20.7 mph N/A   Overcast
8:35 AM 78.8 °F - 77.0 °F 94% 29.78 in 10.0 mi ESE 12.7 mph 20.7 mph N/A   Overcast
8:55 AM 78.8 °F - 77.0 °F 94% 29.78 in 5.0 mi ESE 13.8 mph 20.7 mph N/A   Overcast
9:15 AM 78.8 °F - 77.0 °F 94% 29.76 in 5.0 mi East 16.1 mph 21.9 mph N/A   Overcast
9:35 AM 78.8 °F - 77.0 °F 94% 29.77 in 4.0 mi ESE 12.7 mph 18.4 mph N/A   Overcast
9:55 AM 78.8 °F - 77.0 °F 94% 29.76 in 5.0 mi ESE 15.0 mph 23.0 mph N/A   Overcast
10:15 AM 78.8 °F - 77.0 °F 94% 29.77 in 10.0 mi ESE 13.8 mph 20.7 mph N/A   Overcast
10:35 AM 80.6 °F 87.1 °F 77.0 °F 89% 29.77 in 7.0 mi SE 10.4 mph - N/A   Overcast
10:55 AM 80.6 °F 87.1 °F 77.0 °F 89% 29.77 in 10.0 mi SE 10.4 mph - N/A   Mostly Cloudy
11:15 AM 80.6 °F 88.1 °F 78.8 °F 94% 29.77 in 10.0 mi SE 9.2 mph - N/A   Mostly Cloudy
11:35 AM 82.4 °F 92.4 °F 78.8 °F 89% 29.77 in 10.0 mi SE 10.4 mph - N/A   Mostly Cloudy
11:55 AM 82.4 °F 92.4 °F 78.8 °F 89% 29.78 in 10.0 mi SE 10.4 mph 16.1 mph N/A   Mostly Cloudy
12:15 PM 82.4 °F 92.4 °F 78.8 °F 89% 29.78 in 10.0 mi SSE 9.2 mph - N/A   Mostly Cloudy
12:35 PM 84.2 °F 96.1 °F 78.8 °F 84% 29.77 in 10.0 mi SE 8.1 mph - N/A   Overcast
12:55 PM 86.0 °F 99.3 °F 78.8 °F 79% 29.75 in 10.0 mi SSE 11.5 mph - N/A   Mostly Cloudy
1:15 PM 87.8 °F 102.5 °F 78.8 °F 75% 29.75 in 10.0 mi SSE 13.8 mph - N/A   Mostly Cloudy
1:35 PM 86.0 °F 99.3 °F 78.8 °F 79% 29.74 in 10.0 mi SE 13.8 mph 17.3 mph N/A   Mostly Cloudy
1:55 PM 87.8 °F 102.5 °F 78.8 °F 75% 29.74 in 10.0 mi SSE 17.3 mph 20.7 mph N/A   Mostly Cloudy
2:15 PM 87.8 °F 99.7 °F 77.0 °F 70% 29.73 in 10.0 mi SSE 15.0 mph 21.9 mph N/A   Mostly Cloudy
2:35 PM 86.0 °F 96.9 °F 77.0 °F 74% 29.72 in 10.0 mi ESE 15.0 mph 18.4 mph N/A   Overcast
2:55 PM 86.0 °F 96.9 °F 77.0 °F 74% 29.72 in 10.0 mi SE 10.4 mph - N/A   Mostly Cloudy
3:15 PM 86.0 °F 96.9 °F 77.0 °F 74% 29.71 in 10.0 mi SSE 11.5 mph - N/A   Overcast
3:35 PM 86.0 °F 96.9 °F 77.0 °F 74% 29.71 in 10.0 mi SE 8.1 mph - N/A   Overcast
3:55 PM 87.8 °F 99.7 °F 77.0 °F 70% 29.70 in 10.0 mi SSE 10.4 mph - N/A   Mostly Cloudy
4:15 PM 87.8 °F 99.7 °F 77.0 °F 70% 29.69 in 10.0 mi SSE 13.8 mph 19.6 mph N/A   Scattered Clouds
4:35 PM 87.8 °F 99.7 °F 77.0 °F 70% 29.68 in 10.0 mi SSE 13.8 mph 21.9 mph N/A   Clear
4:55 PM 87.8 °F 99.7 °F 77.0 °F 70% 29.68 in 10.0 mi SSE 19.6 mph 23.0 mph N/A   Clear
5:15 PM 86.0 °F 96.9 °F 77.0 °F 74% 29.69 in 10.0 mi SSE 15.0 mph - N/A   Clear
5:35 PM 86.0 °F 96.9 °F 77.0 °F 74% 29.69 in 10.0 mi SSE 10.4 mph 19.6 mph N/A   Scattered Clouds
5:55 PM 86.0 °F 96.9 °F 77.0 °F 74% 29.69 in 10.0 mi SE 12.7 mph 17.3 mph N/A   Mostly Cloudy
6:15 PM 86.0 °F 96.9 °F 77.0 °F 74% 29.69 in 10.0 mi SE 5.8 mph - N/A   Overcast
6:35 PM 86.0 °F 99.3 °F 78.8 °F 79% 29.69 in 10.0 mi SE 5.8 mph - N/A   Overcast
6:55 PM 86.0 °F 96.9 °F 77.0 °F 74% 29.70 in 10.0 mi SSE 8.1 mph - N/A   Overcast
7:15 PM 84.2 °F 94.1 °F 77.0 °F 79% 29.70 in 10.0 mi SSE 9.2 mph - N/A   Overcast
7:35 PM 84.2 °F 94.1 °F 77.0 °F 79% 29.69 in 10.0 mi SE 8.1 mph - N/A   Overcast
7:55 PM 84.2 °F 94.1 °F 77.0 °F 79% 29.69 in 10.0 mi SE 12.7 mph 17.3 mph N/A   Overcast
8:15 PM 82.4 °F 92.4 °F 78.8 °F 89% 29.70 in 10.0 mi SSE 12.7 mph 19.6 mph N/A   Overcast
8:35 PM 82.4 °F 90.9 °F 77.0 °F 84% 29.70 in 10.0 mi South 9.2 mph - N/A   Overcast
8:55 PM 80.6 °F 87.1 °F 77.0 °F 89% 29.71 in 10.0 mi South 9.2 mph 19.6 mph N/A   Overcast
9:15 PM 80.6 °F 87.1 °F 77.0 °F 89% 29.70 in 10.0 mi South 6.9 mph - N/A   Overcast
9:35 PM 80.6 °F 88.1 °F 78.8 °F 94% 29.69 in 10.0 mi South 10.4 mph 16.1 mph N/A   Overcast
9:55 PM 80.6 °F 87.1 °F 77.0 °F 89% 29.70 in 10.0 mi South 6.9 mph - N/A   Overcast
10:15 PM 80.6 °F 87.1 °F 77.0 °F 89% 29.71 in 10.0 mi SSW 8.1 mph - N/A   Overcast
10:35 PM 80.6 °F 86.2 °F 75.2 °F 84% 29.70 in 10.0 mi SSW 9.2 mph - N/A   Mostly Cloudy
10:55 PM 80.6 °F 86.2 °F 75.2 °F 84% 29.71 in 10.0 mi South 9.2 mph - N/A   Mostly Cloudy
11:15 PM 80.6 °F 86.2 °F 75.2 °F 84% 29.72 in 10.0 mi SW 8.1 mph - N/A   Mostly Cloudy
11:35 PM 80.6 °F 85.4 °F 73.4 °F 79% 29.71 in 10.0 mi South 4.6 mph - N/A   Mostly Cloudy
11:55 PM 80.6 °F 85.4 °F 73.4 °F 79% 29.70 in 10.0 mi South 5.8 mph - N/A   Mostly Cloudy